This demonstration page uses our WeatherBlox Daily Observations layout. Learn more.

Left ArrowRight Arrow

36.17497, -115.13722

Hourly Observations for November 1, 2016

Temp ( °F °C ) Dew Point ( °F °C ) Humidity (%) Winds ( mph kmh ) Pressure ( in mb ) Visibility ( mi km ) Precip ( " mm )
12:53 am 00:53 Clear 59 15 40 4.4 49 49 N N/A 29.85 1011 10 16.0934 N/A
1:53 am 01:53 Clear 57 13.9 42 5.6 58 58 NW 3 6 29.87 1012 10 16.0934 N/A
2:53 am 02:53 Clear 56 13.3 41 5 57 57 NW 5 7 29.86 1011 10 16.0934 N/A
3:53 am 03:53 Clear 54 12.2 39 3.9 57 57 NW 5 7 29.85 1011 10 16.0934 N/A
4:53 am 04:53 Clear 53 11.7 38 3.3 57 57 N N/A 29.86 1011 10 16.0934 N/A
5:53 am 05:53 Clear 53 11.7 37 2.8 55 55 NNW 5 7 29.87 1012 10 16.0934 N/A
6:53 am 06:53 Clear 53 11.7 38 3.3 57 57 NNE 3 6 29.88 1012 10 16.0934 N/A
7:53 am 07:53 Sunny 55 12.8 37 2.8 51 51 N 3 6 29.9 1013 10 16.0934 N/A
8:53 am 08:53 Sunny 57 13.9 37 2.8 47 47 N 7 11 29.93 1014 10 16.0934 N/A
9:53 am 09:53 undefined N/A N/A N/A undefined N/A N/A N/A N/A
10:53 am 10:53 Sunny 61 16.1 36 2.2 39 39 ESE 3 6 29.95 1014 10 16.0934 N/A
11:53 am 11:53 Sunny 64 17.8 37 2.8 37 37 SSE 6 9 29.95 1014 10 16.0934 N/A
12:53 pm 12:53 Sunny 66 18.9 38 3.3 36 36 VRB 3 6 29.93 1014 10 16.0934 N/A
1:53 pm 13:53 Sunny 68 20 38 3.3 33 33 ESE 3 6 29.91 1013 10 16.0934 N/A
2:53 pm 14:53 Sunny 69 20.6 37 2.8 31 31 SE 7 11 29.9 1013 10 16.0934 N/A
3:53 pm 15:53 Sunny 70 21.1 36 2.2 29 29 VRB 6 9 29.91 1013 10 16.0934 N/A
4:53 pm 16:53 Sunny 72 22 43 6 36 36 SE 6 9 29.77 1008 10 16.0934 N/A
5:53 pm 17:53 Clear 67 19.4 36 2.2 32 32 E 6 9 29.94 1014 10 16.0934 N/A
6:53 pm 18:53 Partly Cloudy 66 18.9 37 2.8 34 34 ENE 7 11 29.97 1015 10 16.0934 N/A
7:53 pm 19:53 Mostly Cloudy 66 18.9 36 2.2 33 33 E 10 17 30.01 1016 10 16.0934 N/A
8:53 pm 20:53 Mostly Clear 65 18.3 36 2.2 34 34 W 5 7 30.05 1018 10 16.0934 N/A
9:53 pm 21:53 Clear 64 17.8 36 2.2 35 35 N 9 15 29.97 1015 10 16.0934 N/A
10:53 pm 22:53 Clear 63 17.2 37 2.8 38 38 N 10 17 30.08 1019 10 16.0934 N/A
11:53 pm 23:53 Clear 63 17.2 34 1.1 34 34 N 12 19 30.09 1019 10 16.0934 N/A

Powered by AerisWeather